{"data":{"norad_id":68779,"intl_designator":"2026-086P","name":"STARLINK-37391","alt_names":[],"object_type":"PAYLOAD","status":"ACTIVE","operator":null,"country":"US","launch_date":"2026-04-19","launch_site_code":"AFWTR","launch_vehicle":null,"mission":null,"orbit_class":"UNKNOWN","rcs_meters":null,"size_class":null,"mass_kg":null,"dimensions":null,"purposes":["comms"],"wikipedia_slug":null,"has_3d_model":false,"image_url":null,"decayed_at":null,"tle_current":{"epoch":"2026-05-23T15:14:45.269952Z","epoch_age_seconds":196137,"freshness":"STALE","line1":"1 68779U 26086P   26143.63524618  .00259712  00000+0  16805-2 0  9997","line2":"2 68779  97.2843 180.4367 0001204  12.0261 348.1033 15.75315605  5296","mean_motion":15.75315605,"eccentricity":0.0001204,"inclination_deg":97.2843,"raan_deg":180.4367,"arg_perigee_deg":12.0261,"mean_anomaly_deg":348.1033,"bstar":0.0016805,"rev_number":529,"period_min":91.410254264573,"perigee_km":342.92392748636,"apogee_km":344.54255384031,"semimajor_km":6721.8702406633,"source":"CELESTRAK","updated_at":"2026-05-25T13:38:22.036833Z"}}}